SCP
0 0 -0 -0 -0 0 0 0 0 0 0 0 0 0 0 0 0 0 0 0 0 0 -0 -0 -0 -0 -0 -0 -0 -0 -0 -0 -0 -0 0 0 0 0 -0 -0 -0 0 0 0 0 0 -0 0 0
0 -0 -0 -0 0 0 0 0 0 0 0 0 0 0 0 -0 0 0 0 0 0 0 0 0 -0 -0 -0 -0 -0 -0 -0 -0 -0 -0 -0 -0 -0 0 0 0 0 0 0 0 0 0 0 0 0
-0 -0 -0 0 0 0 0 0 0 -0 0 0 0 0 0 0 0 0 0 0 0 0 0 0 -0 -0 -0 -0 -0 -0 -0 -0 -0 -0 -0 -0 -0 0 0 0 0 0 0 0 0 0 0 0 0
-0 -0 0 0 0 0 0 0 0 -0 -0 0 0 0 0 0 0 0 -0 0 0 0 0 -0 -0 -0 -0 -0 -0 -0 -0 -0 -0 -0 -0 -0 -0 -0 -0 0 0 0 0 0 0 0 0 0 0
0 0 0 0 0 0 0 0 0 0 -0 -0 0 0 0 0 -0 0 0 0 0 0 0 0 -0 -0 -0 -0 -0 -0 -0 -0 -0 -0 -0 -0 -0 0 0 0 0 0 0 0 0 0 0 0 0
0 0 0 0 0 0 0 0 0 0 0 0 0 0 0 0 0 0 0 0 0 0 0 0 0 0 0 -0 -0 -0 -0 -0 0 0 -0 -0 -0 0 0 0 0 0 0 0 0 0 0 0 0
0 0 0 0 0 0 0 0 0 0 0 0 0 0 0 0 0 0 0 0 0 0 0 0 0 0 0 0 0 -0 -0 -0 0 0 0 0 0 0 0 0 0 0 0 0 0 0 0 0 0
0 0 0 0 0 0 0 0 0 0 0 0 0 0 0 0 0 0 0 0 0 0 0 0 0 0 0 0 0 0 0 0 0 0 0 0 0 0 0 0 0 0 0 0 0 0 0 0 0
0 0 0 0 0 0 0 0 0 0 0 0 0 0 0 0 0 0 0 0 0 0 0 0 0 0 0 0 0 0 0 0 0 0 0 0 0 0 0 0 0 0 0 0 0 0 0 0 0
0 0 0 0 0 0 0 0 0 0 0 0 0 0 0 0 0 0 0 0 0 0 0 0 0 0 0 0 0 0 0 0 0 0 0 0 0 0 0 0 0 0 0 0 0 0 0 0 0
0 0 0 0 0 0 0 0 0 0 0 -0 0 0 0 0 0 0 0 0 0 0 0 0 0 0 0 0 0 0 0 0 0 0 0 0 0 0 0 0 0 0 0 0 0 0 0 0 0
0 0 0 0 0 0 0 0 0 0 0 0 0 0 0 0 0 0 0 0 0 0 0 0 0 0 0 0 0 0 0 0 0 0 0 0 0 0 0 0 0 0 0 0 0 0 0 0 0
0 0 0 0 0 0 0 0 0 0 0 0 0 0 0 0 0 0 0 0 0 0 0 0 0 0 0 0 0 0 0 0 0 0 0 0 0 0 0 0 0 0 0 0 0 0 0 0 0
0 0 0 0 0 0 0 0 0 0 0 0 0 0 0 0 0 0 0 0 0 0 0 0 0 0 0 0 0 0 0 0 0 0 0 0 0 0 0 0 0 0 0 0 0 0 0 0 0
0 0 0 0 0 0 0 0 0 0 0 0 0 0 0 0 0 0 0 0 0 0 0 0 0 0 0 0 0 0 0 0 0 0 0 0 0 0 0 0 0 0 0 0 0 0 0 0 0
0 0 0 0 0 0 0 0 0 0 0 0 0 0 0 0 0 0 0 0 0 0 0 0 0 0 0 0 0 0 0 0 0 0 0 0 0 0 0 0 0 0 0 0 0 0 0 0 0
0 0 0 0 0 0 0 0 0 0 0 0 0 0 0 0 0 0 0 0 0 0 0 0 0 0 0 0 0 0 0 0 0 0 0 0 0 0 0 0 0 0 0 0 0 0 0 0 0
0 0 0 0 0 0 0 0 0 0 0 0 0 0 0 0 0 0 0 0 0 0 0 0 0 0 0 0 0 0 0 0 0 0 0 0 0 0 0 0 0 0 0 0 0 0 0 0 0
0 0 0 0 0 0 0 0 0 0 0 0 0 0 0 0 0 0 0 0 0 0 0 0 0 0 0 0 0 0 0 0 0 0 0 0 0 0 0 0 0 0 0 0 0 0 0 0 0
0 0 0 0 0 0 0 0 0 0 0 0 0 0 0 0 0 0 0 0 0 0 0 0 0 0 0 0 0 0 0 0 0 0 0 0 0 0 0 0 0 0 0 0 0 0 0 0 0
0 0 0 0 0 0 0 0 0 0 0 0 0 0 0 0 0 0 0 0 0 0 0 0 0 0 0 0 0 0 0 0 0 0 0 0 0 0 0 0 0 0 0 0 0 0 0 0 0
0 0 0 0 0 0 0 0 0 0 0 0 0 0 0 0 0 0 0 0 0 0 0 0 0 0 0 0 0 0 0 0 0 0 0 0 0 0 0 0 0 0 0 0 0 0 0 0 0
0 0 0 0 0 0 0 0 0 0 0 0 0 0 0 0 0 0 0 0 0 0 0 0 0 0 0 0 0 0 0 0 0 0 0 0 0 0 0 0 0 0 0 0 0 0 0 0 0
0 0 0 0 0 0 0 0 0 0 0 0 0 0 0 0 0 0 0 0 0 0 0 0 0 0 0 0 0 0 0 0 0 0 0 0 0 0 0 0 0 0 0 0 0 0 0 0 0
0 0 0 0 0 0 0 0 0 0 0 0 0 0 0 0 0 0 0 0 0 0 0 0 0 0 0 0 0 0 0 0 0 0 0 0 0 0 0 0 0 0 0 0 0 0 0 0 0
0 0 0 0 0 0 0 0 0 0 0 0 0 0 0 0 0 0 0 0 0 0 0 0 0 0 0 0 0 0 0 0 0 0 0 0 0 0 0 0 0 0 0 0 0 0 0 0 0
0 0 0 0 0 0 0 0 0 0 0 0 0 0 0 0 0 0 0 0 0 0 0 0 0 0 0 0 0 0 0 0 0 0 0 0 0 0 0 0 0 0 0 0 0 0 0 0 0
0 0 0 0 0 0 0 0 0 0 0 0 0 0 0 0 0 0 0 0 0 0 0 0 0 0 0 0 0 0 0 0 0 0 0 0 0 0 0 0 0 0 0 0 0 0 0 0 0
0 0 0 0 0 0 0 0 0 0 0 0 0 0 0 0 0 0 0 0 0 0 0 0 0 0 0 0 0 0 0 0 0 0 0 0 0 0 0 0 0 0 0 -0 -0 -0 -0 -0 -0
0 0 0 0 0 0 0 0 0 0 0 0 0 0 0 0 0 0 0 0 0 0 0 0 0 0 0 0 0 0 0 0 0 0 0 0 0 0 0 0 0 0 0 0 -0 -0 -0 -0 -0
Wind_Speed_500mb
10 7 5 2 8 10 2 2 3 4 4 1 3 4 4 3 7 5 10 1 4 8 28 36 33 29 29 29 27 27 25 22 18 13 9 8 7 6 7 7 6 10 12 9 7 7 6 5 4
8 6 3 4 9 7 8 7 4 3 0 4 6 5 5 3 2 6 8 5 4 7 17 30 33 32 30 28 26 24 24 20 16 13 11 9 11 12 11 10 10 11 10 7 6 5 5 5 4
8 7 3 9 7 7 7 7 4 3 2 3 4 2 3 1 3 5 7 5 3 3 13 24 30 30 29 26 25 24 23 21 18 16 14 14 18 16 13 12 12 13 11 11 9 6 6 7 8
6 2 9 9 4 4 5 5 4 4 2 4 4 3 3 2 1 3 7 7 3 3 7 19 29 31 30 29 27 25 24 22 18 16 15 17 5 8 12 15 18 20 18 13 13 10 9 9 9
6 6 8 7 4 6 7 6 2 4 4 1 3 3 4 5 4 1 5 7 6 1 6 13 25 31 32 31 29 29 27 25 22 19 18 17 19 16 16 17 22 27 26 16 12 12 12 11 12
6 6 9 3 6 8 7 11 2 1 6 5 4 5 3 12 4 5 5 4 7 2 5 9 17 28 32 32 31 30 30 28 25 23 22 25 19 17 15 17 21 27 18 11 10 12 13 12 10
10 8 7 6 4 7 4 16 6 2 7 4 4 6 3 17 8 8 10 10 7 5 5 9 14 22 30 35 35 32 30 30 28 25 27 29 23 14 18 19 17 18 14 12 12 14 13 11 9
6 10 6 4 4 5 5 8 5 7 3 6 4 4 7 26 27 13 10 11 11 7 7 10 14 20 28 34 38 37 34 33 32 30 34 32 29 27 27 20 17 17 17 14 15 15 14 12 10
4 9 3 7 10 5 4 10 2 14 10 4 6 9 20 22 13 15 10 13 16 16 15 18 20 23 26 32 37 39 39 37 36 36 36 35 34 33 34 24 18 16 16 16 18 18 16 14 13
8 7 12 6 7 3 8 2 14 9 14 8 13 16 21 16 20 16 14 16 18 20 21 24 30 29 28 31 34 39 41 41 40 39 38 37 35 33 29 26 22 18 18 20 18 17 17 18 17
5 8 5 4 11 7 8 10 4 4 11 5 9 25 16 12 3 10 14 19 23 26 28 31 31 33 32 32 32 34 37 41 42 42 41 37 38 35 34 31 29 25 25 24 23 21 18 20 22
1 9 9 6 4 7 7 12 10 13 7 23 20 4 6 10 11 9 8 13 16 17 21 21 27 30 34 32 31 30 30 34 37 35 37 37 38 35 37 36 36 34 32 29 27 24 22 23 25
7 6 9 16 21 22 23 18 15 38 26 4 4 3 7 14 15 14 15 16 21 24 25 24 23 28 29 31 26 26 24 25 30 36 42 40 38 38 38 37 37 36 36 34 35 30 28 27 28
2 8 20 21 27 19 9 4 2 14 13 8 3 8 12 13 13 12 12 17 22 24 22 22 24 28 29 28 26 22 18 16 18 23 37 40 38 38 41 40 42 37 36 38 40 38 31 32 33
4 9 13 14 13 10 10 5 12 3 7 14 14 14 14 18 17 18 19 22 23 26 24 14 14 17 28 30 26 24 19 12 9 9 13 21 25 31 32 36 38 35 37 41 42 37 36 36 38
7 7 7 6 1 2 9 15 0 16 26 16 13 10 10 12 17 19 19 19 22 23 24 26 18 6 19 26 22 20 17 14 12 13 17 19 24 28 28 34 34 34 35 39 36 41 43 41 37
10 6 9 15 3 3 4 11 3 36 26 17 14 12 11 11 14 17 18 19 21 25 26 24 18 12 13 15 18 19 18 17 15 15 16 17 17 12 14 19 26 34 34 36 35 36 39 37 37
12 9 9 11 2 6 2 14 9 32 19 22 20 19 21 23 26 23 20 20 22 24 26 26 26 26 23 20 21 16 12 8 5 9 14 18 22 21 18 18 20 23 16 15 25 31 33 36 40
8 8 10 6 6 1 13 13 7 16 24 21 22 25 30 34 34 35 35 33 30 26 24 26 25 30 22 17 16 13 5 3 6 9 9 10 11 13 19 17 18 22 20 25 26 27 24 29 35
5 5 10 10 4 11 9 12 5 12 9 14 23 26 32 35 38 44 50 53 57 57 56 50 45 37 31 24 24 19 16 11 8 8 13 17 18 20 23 23 22 24 25 29 35 36 32 32 35
9 12 9 13 6 3 7 12 8 7 19 21 21 26 29 32 36 41 48 52 55 58 59 56 56 55 52 43 32 25 20 18 12 8 5 8 9 13 15 19 21 24 25 27 31 36 39 40 37
10 15 10 8 7 8 2 9 6 9 9 10 20 27 29 29 33 38 44 48 51 53 49 48 48 49 48 42 37 32 32 28 30 25 23 20 18 18 17 16 16 17 18 19 19 19 24 30 37
12 9 11 5 6 3 4 1 11 11 9 11 21 26 30 32 34 38 39 40 42 39 37 33 34 32 32 29 28 28 29 31 28 25 21 20 20 18 19 20 23 23 24 23 19 17 17 18 19
14 12 12 9 6 2 12 12 8 11 9 12 28 32 31 32 33 34 33 31 30 29 27 23 23 25 23 23 24 24 24 24 20 21 19 21 22 23 24 25 24 24 24 28 32 32 31 28 26
7 11 2 5 1 11 4 3 14 5 4 18 37 50 40 34 33 29 24 22 22 19 18 16 17 18 17 16 17 18 18 17 17 18 20 20 22 25 27 28 28 30 29 29 31 31 28 31 32
13 12 10 13 7 7 3 11 11 5 9 17 49 53 43 40 35 26 19 15 13 12 11 9 10 12 13 13 15 15 15 16 17 20 21 23 25 26 27 29 31 32 34 35 36 38 40 40 41
9 8 7 13 5 4 8 10 3 1 4 20 44 51 48 44 40 30 21 13 8 5 3 2 3 4 6 7 9 11 13 14 17 19 21 24 26 28 30 31 32 33 36 40 43 45 48 50 51
8 13 7 4 4 8 9 9 10 12 16 13 25 51 52 47 43 35 24 15 12 9 7 6 7 6 5 3 4 7 10 14 18 22 25 27 30 32 35 36 36 38 42 47 53 58 61 65 65
6 6 7 8 8 10 4 10 11 15 20 28 39 58 57 55 50 39 28 24 20 16 13 14 13 10 7 4 4 8 13 17 20 24 28 31 33 35 37 40 44 51 59 64 69 73 76 79 82
1 12 13 9 11 5 3 15 9 8 30 47 50 60 55 52 47 38 33 29 26 22 20 21 20 17 11 8 9 12 17 21 25 29 32 35 37 39 41 46 51 57 63 69 76 82 85 90 92
Wind_Direction_500mb
340 351 340 349 57 66 354 303 262 327 13 107 96 105 150 159 152 200 348 257 11 168 185 186 188 190 188 187 188 192 198 203 207 213 212 194 181 181 228 241 293 322 338 347 354 23 31 32 36
11 17 33 87 83 66 279 259 230 210 171 114 112 80 53 335 330 350 4 336 13 163 187 194 191 194 199 200 201 205 207 213 222 229 229 226 221 227 246 267 292 317 344 336 327 345 357 345 317
32 15 33 92 104 151 191 237 239 309 122 76 93 105 121 71 1 28 13 11 14 147 190 202 201 201 203 201 205 207 210 215 225 232 237 242 243 241 255 265 282 297 308 307 296 311 320 306 294
2 18 63 80 119 229 211 317 259 331 70 55 78 52 297 255 10 45 53 67 36 184 179 200 206 208 212 215 215 218 221 226 231 232 245 254 210 241 260 281 294 302 301 299 293 296 301 295 286
13 51 55 83 289 274 280 357 347 316 308 321 47 348 319 345 281 187 67 57 56 105 211 206 211 215 218 221 222 222 228 234 239 239 231 252 251 253 271 289 300 296 289 293 289 299 305 302 289
60 65 64 157 277 298 299 358 31 29 337 345 30 355 16 15 31 348 338 1 13 345 228 230 223 223 227 229 228 228 230 236 239 238 229 247 241 246 271 292 299 298 290 293 301 310 310 307 297
100 78 171 174 260 315 286 351 69 6 338 18 6 336 0 34 355 307 297 290 318 335 289 250 240 233 232 234 235 234 231 238 239 236 235 250 247 269 285 291 303 318 313 310 312 310 305 300 288
82 91 119 248 202 253 338 19 76 53 327 337 347 343 335 335 329 310 290 283 274 302 299 276 264 248 239 239 239 240 238 239 239 234 241 245 259 268 279 281 287 318 328 316 317 312 305 298 284
82 62 173 227 155 244 358 16 309 324 277 307 319 345 317 307 289 311 274 288 270 268 282 276 261 257 252 245 244 244 244 243 241 238 242 248 255 266 272 262 264 293 320 322 320 312 305 291 278
76 104 220 212 208 253 323 342 323 332 318 289 326 330 325 300 271 271 267 278 277 271 267 270 271 263 256 254 249 245 244 244 243 243 245 252 260 267 266 273 260 277 301 308 317 305 301 283 272
128 183 214 280 241 288 305 305 200 286 302 324 355 326 351 23 293 264 285 296 296 286 275 261 250 256 259 260 256 253 248 246 245 246 249 254 264 265 259 267 277 286 292 297 306 310 290 274 265
41 246 223 272 244 295 282 298 278 221 261 324 306 282 4 7 24 31 353 327 318 304 304 273 251 245 247 255 256 257 255 256 253 250 254 246 252 263 266 272 279 283 288 292 293 299 297 284 269
179 252 239 262 275 279 276 263 268 274 296 98 98 161 6 5 3 352 346 335 319 305 294 282 259 244 238 242 251 255 263 270 262 244 247 252 256 260 269 271 277 279 287 296 295 290 290 285 276
275 287 288 289 278 270 237 272 246 78 103 91 53 15 2 2 9 355 331 329 322 316 303 288 266 240 230 224 236 251 263 287 292 266 252 257 262 265 266 270 277 280 290 295 303 302 292 290 286
328 334 324 264 272 218 177 247 219 97 32 53 33 20 5 359 352 353 347 343 344 340 338 319 285 251 220 210 218 232 244 268 305 299 274 271 275 276 274 271 271 280 285 288 293 298 298 297 292
31 51 352 315 135 323 161 259 159 43 1 42 37 28 17 8 1 352 356 4 5 2 358 1 0 290 203 195 198 210 222 229 237 253 248 251 257 258 263 267 263 277 284 285 291 286 293 298 298
5 234 210 315 35 140 131 268 293 339 2 76 61 51 44 35 24 23 28 30 27 26 27 20 26 67 122 150 170 180 202 222 231 241 254 256 253 270 275 283 288 288 285 282 288 290 291 302 303
200 213 239 237 307 39 340 268 322 28 65 80 76 73 66 60 56 55 56 54 52 51 54 57 64 76 92 111 124 140 184 180 216 262 268 269 281 281 281 279 286 275 307 295 280 284 289 294 299
145 180 214 247 224 193 243 249 339 63 83 89 93 92 84 78 75 75 74 75 75 73 70 72 80 79 82 93 108 115 96 63 333 313 315 298 290 275 273 278 288 292 297 299 293 290 295 295 299
156 168 250 284 284 184 313 281 76 48 64 108 114 102 99 98 93 89 85 82 77 74 71 70 72 76 76 78 73 71 70 82 58 358 323 333 331 312 304 304 310 303 305 301 301 302 308 307 299
206 196 200 221 346 345 341 286 182 58 103 113 118 120 117 109 100 93 88 83 80 76 72 71 70 68 64 61 67 72 72 82 83 64 32 355 340 318 305 295 286 281 283 291 302 309 310 309 304
218 204 173 177 122 225 59 279 243 172 149 140 148 145 134 121 106 100 95 88 80 76 73 70 67 65 66 68 65 67 69 70 67 60 50 39 28 21 14 7 355 336 322 308 300 295 298 301 299
216 118 150 130 127 56 251 293 256 140 201 197 187 167 150 138 127 116 103 94 87 82 72 67 61 63 68 66 67 67 70 73 76 74 72 70 65 59 50 38 34 27 22 13 360 344 338 329 311
139 79 52 55 92 282 229 184 254 196 195 164 181 182 168 151 140 128 116 105 93 82 72 67 62 65 71 72 76 75 83 87 86 76 59 48 41 38 35 27 23 23 19 14 7 5 3 2 346
104 111 299 341 24 230 5 188 250 176 149 180 180 184 176 164 154 141 127 114 99 86 70 62 62 67 67 64 69 67 62 56 45 42 34 26 20 18 18 15 12 10 8 0 357 355 355 350 345
177 163 156 223 210 261 343 233 260 261 296 236 193 178 174 173 166 160 146 131 113 90 74 60 60 65 67 57 51 48 45 38 31 25 16 9 6 4 4 1 359 356 352 348 346 342 339 337 333
182 179 157 103 39 21 234 282 275 44 46 139 162 174 182 181 179 179 175 164 146 122 106 116 87 88 92 75 63 44 33 25 16 12 5 360 356 352 352 348 347 345 342 339 335 333 330 327 325
151 158 85 10 178 257 279 273 238 222 202 169 168 187 189 189 193 195 196 201 201 199 207 206 195 181 154 105 42 15 7 4 359 353 345 343 341 339 335 334 334 333 332 329 328 326 324 321 319
135 174 68 123 149 175 258 253 210 219 177 182 198 196 194 196 201 205 212 217 211 217 217 216 212 209 208 222 294 331 336 334 335 331 330 328 328 326 325 326 327 328 327 325 323 322 320 318 316
164 194 161 164 216 253 146 257 3 252 179 185 198 200 202 206 210 217 229 227 228 230 230 225 220 218 226 254 286 300 311 318 320 323 325 324 325 324 323 323 322 322 321 320 320 319 319 318 316
Wind_Speed_850mb
10 7 5 2 8 10 2 2 3 4 4 1 3 4 4 3 7 5 10 1 4 8 28 36 33 29 29 29 27 27 25 22 18 13 9 8 7 6 7 7 6 10 12 9 7 7 6 5 4
8 6 3 4 9 7 8 7 4 3 0 4 6 5 5 3 2 6 8 5 4 7 17 30 33 32 30 28 26 24 24 20 16 13 11 9 11 12 11 10 10 11 10 7 6 5 5 5 4
8 7 3 9 7 7 7 7 4 3 2 3 4 2 3 1 3 5 7 5 3 3 13 24 30 30 29 26 25 24 23 21 18 16 14 14 18 16 13 12 12 13 11 11 9 6 6 7 8
6 2 9 9 4 4 5 5 4 4 2 4 4 3 3 2 1 3 7 7 3 3 7 19 29 31 30 29 27 25 24 22 18 16 15 17 5 8 12 15 18 20 18 13 13 10 9 9 9
6 6 8 7 4 6 7 6 2 4 4 1 3 3 4 5 4 1 5 7 6 1 6 13 25 31 32 31 29 29 27 25 22 19 18 17 19 16 16 17 22 27 26 16 12 12 12 11 12
6 6 9 3 6 8 7 11 2 1 6 5 4 5 3 12 4 5 5 4 7 2 5 9 17 28 32 32 31 30 30 28 25 23 22 25 19 17 15 17 21 27 18 11 10 12 13 12 10
10 8 7 6 4 7 4 16 6 2 7 4 4 6 3 17 8 8 10 10 7 5 5 9 14 22 30 35 35 32 30 30 28 25 27 29 23 14 18 19 17 18 14 12 12 14 13 11 9
6 10 6 4 4 5 5 8 5 7 3 6 4 4 7 26 27 13 10 11 11 7 7 10 14 20 28 34 38 37 34 33 32 30 34 32 29 27 27 20 17 17 17 14 15 15 14 12 10
4 9 3 7 10 5 4 10 2 14 10 4 6 9 20 22 13 15 10 13 16 16 15 18 20 23 26 32 37 39 39 37 36 36 36 35 34 33 34 24 18 16 16 16 18 18 16 14 13
8 7 12 6 7 3 8 2 14 9 14 8 13 16 21 16 20 16 14 16 18 20 21 24 30 29 28 31 34 39 41 41 40 39 38 37 35 33 29 26 22 18 18 20 18 17 17 18 17
5 8 5 4 11 7 8 10 4 4 11 5 9 25 16 12 3 10 14 19 23 26 28 31 31 33 32 32 32 34 37 41 42 42 41 37 38 35 34 31 29 25 25 24 23 21 18 20 22
1 9 9 6 4 7 7 12 10 13 7 23 20 4 6 10 11 9 8 13 16 17 21 21 27 30 34 32 31 30 30 34 37 35 37 37 38 35 37 36 36 34 32 29 27 24 22 23 25
7 6 9 16 21 22 23 18 15 38 26 4 4 3 7 14 15 14 15 16 21 24 25 24 23 28 29 31 26 26 24 25 30 36 42 40 38 38 38 37 37 36 36 34 35 30 28 27 28
2 8 20 21 27 19 9 4 2 14 13 8 3 8 12 13 13 12 12 17 22 24 22 22 24 28 29 28 26 22 18 16 18 23 37 40 38 38 41 40 42 37 36 38 40 38 31 32 33
4 9 13 14 13 10 10 5 12 3 7 14 14 14 14 18 17 18 19 22 23 26 24 14 14 17 28 30 26 24 19 12 9 9 13 21 25 31 32 36 38 35 37 41 42 37 36 36 38
7 7 7 6 1 2 9 15 0 16 26 16 13 10 10 12 17 19 19 19 22 23 24 26 18 6 19 26 22 20 17 14 12 13 17 19 24 28 28 34 34 34 35 39 36 41 43 41 37
10 6 9 15 3 3 4 11 3 36 26 17 14 12 11 11 14 17 18 19 21 25 26 24 18 12 13 15 18 19 18 17 15 15 16 17 17 12 14 19 26 34 34 36 35 36 39 37 37
12 9 9 11 2 6 2 14 9 32 19 22 20 19 21 23 26 23 20 20 22 24 26 26 26 26 23 20 21 16 12 8 5 9 14 18 22 21 18 18 20 23 16 15 25 31 33 36 40
8 8 10 6 6 1 13 13 7 16 24 21 22 25 30 34 34 35 35 33 30 26 24 26 25 30 22 17 16 13 5 3 6 9 9 10 11 13 19 17 18 22 20 25 26 27 24 29 35
5 5 10 10 4 11 9 12 5 12 9 14 23 26 32 35 38 44 50 53 57 57 56 50 45 37 31 24 24 19 16 11 8 8 13 17 18 20 23 23 22 24 25 29 35 36 32 32 35
9 12 9 13 6 3 7 12 8 7 19 21 21 26 29 32 36 41 48 52 55 58 59 56 56 55 52 43 32 25 20 18 12 8 5 8 9 13 15 19 21 24 25 27 31 36 39 40 37
10 15 10 8 7 8 2 9 6 9 9 10 20 27 29 29 33 38 44 48 51 53 49 48 48 49 48 42 37 32 32 28 30 25 23 20 18 18 17 16 16 17 18 19 19 19 24 30 37
12 9 11 5 6 3 4 1 11 11 9 11 21 26 30 32 34 38 39 40 42 39 37 33 34 32 32 29 28 28 29 31 28 25 21 20 20 18 19 20 23 23 24 23 19 17 17 18 19
14 12 12 9 6 2 12 12 8 11 9 12 28 32 31 32 33 34 33 31 30 29 27 23 23 25 23 23 24 24 24 24 20 21 19 21 22 23 24 25 24 24 24 28 32 32 31 28 26
7 11 2 5 1 11 4 3 14 5 4 18 37 50 40 34 33 29 24 22 22 19 18 16 17 18 17 16 17 18 18 17 17 18 20 20 22 25 27 28 28 30 29 29 31 31 28 31 32
13 12 10 13 7 7 3 11 11 5 9 17 49 53 43 40 35 26 19 15 13 12 11 9 10 12 13 13 15 15 15 16 17 20 21 23 25 26 27 29 31 32 34 35 36 38 40 40 41
9 8 7 13 5 4 8 10 3 1 4 20 44 51 48 44 40 30 21 13 8 5 3 2 3 4 6 7 9 11 13 14 17 19 21 24 26 28 30 31 32 33 36 40 43 45 48 50 51
8 13 7 4 4 8 9 9 10 12 16 13 25 51 52 47 43 35 24 15 12 9 7 6 7 6 5 3 4 7 10 14 18 22 25 27 30 32 35 36 36 38 42 47 53 58 61 65 65
6 6 7 8 8 10 4 10 11 15 20 28 39 58 57 55 50 39 28 24 20 16 13 14 13 10 7 4 4 8 13 17 20 24 28 31 33 35 37 40 44 51 59 64 69 73 76 79 82
1 12 13 9 11 5 3 15 9 8 30 47 50 60 55 52 47 38 33 29 26 22 20 21 20 17 11 8 9 12 17 21 25 29 32 35 37 39 41 46 51 57 63 69 76 82 85 90 92
Wind_Direction_850mb
340 351 340 349 57 66 354 303 262 327 13 107 96 105 150 159 152 200 348 257 11 168 185 186 188 190 188 187 188 192 198 203 207 213 212 194 181 181 228 241 293 322 338 347 354 23 31 32 36
11 17 33 87 83 66 279 259 230 210 171 114 112 80 53 335 330 350 4 336 13 163 187 194 191 194 199 200 201 205 207 213 222 229 229 226 221 227 246 267 292 317 344 336 327 345 357 345 317
32 15 33 92 104 151 191 237 239 309 122 76 93 105 121 71 1 28 13 11 14 147 190 202 201 201 203 201 205 207 210 215 225 232 237 242 243 241 255 265 282 297 308 307 296 311 320 306 294
2 18 63 80 119 229 211 317 259 331 70 55 78 52 297 255 10 45 53 67 36 184 179 200 206 208 212 215 215 218 221 226 231 232 245 254 210 241 260 281 294 302 301 299 293 296 301 295 286
13 51 55 83 289 274 280 357 347 316 308 321 47 348 319 345 281 187 67 57 56 105 211 206 211 215 218 221 222 222 228 234 239 239 231 252 251 253 271 289 300 296 289 293 289 299 305 302 289
60 65 64 157 277 298 299 358 31 29 337 345 30 355 16 15 31 348 338 1 13 345 228 230 223 223 227 229 228 228 230 236 239 238 229 247 241 246 271 292 299 298 290 293 301 310 310 307 297
100 78 171 174 260 315 286 351 69 6 338 18 6 336 0 34 355 307 297 290 318 335 289 250 240 233 232 234 235 234 231 238 239 236 235 250 247 269 285 291 303 318 313 310 312 310 305 300 288
82 91 119 248 202 253 338 19 76 53 327 337 347 343 335 335 329 310 290 283 274 302 299 276 264 248 239 239 239 240 238 239 239 234 241 245 259 268 279 281 287 318 328 316 317 312 305 298 284
82 62 173 227 155 244 358 16 309 324 277 307 319 345 317 307 289 311 274 288 270 268 282 276 261 257 252 245 244 244 244 243 241 238 242 248 255 266 272 262 264 293 320 322 320 312 305 291 278
76 104 220 212 208 253 323 342 323 332 318 289 326 330 325 300 271 271 267 278 277 271 267 270 271 263 256 254 249 245 244 244 243 243 245 252 260 267 266 273 260 277 301 308 317 305 301 283 272
128 183 214 280 241 288 305 305 200 286 302 324 355 326 351 23 293 264 285 296 296 286 275 261 250 256 259 260 256 253 248 246 245 246 249 254 264 265 259 267 277 286 292 297 306 310 290 274 265
41 246 223 272 244 295 282 298 278 221 261 324 306 282 4 7 24 31 353 327 318 304 304 273 251 245 247 255 256 257 255 256 253 250 254 246 252 263 266 272 279 283 288 292 293 299 297 284 269
179 252 239 262 275 279 276 263 268 274 296 98 98 161 6 5 3 352 346 335 319 305 294 282 259 244 238 242 251 255 263 270 262 244 247 252 256 260 269 271 277 279 287 296 295 290 290 285 276
275 287 288 289 278 270 237 272 246 78 103 91 53 15 2 2 9 355 331 329 322 316 303 288 266 240 230 224 236 251 263 287 292 266 252 257 262 265 266 270 277 280 290 295 303 302 292 290 286
328 334 324 264 272 218 177 247 219 97 32 53 33 20 5 359 352 353 347 343 344 340 338 319 285 251 220 210 218 232 244 268 305 299 274 271 275 276 274 271 271 280 285 288 293 298 298 297 292
31 51 352 315 135 323 161 259 159 43 1 42 37 28 17 8 1 352 356 4 5 2 358 1 0 290 203 195 198 210 222 229 237 253 248 251 257 258 263 267 263 277 284 285 291 286 293 298 298
5 234 210 315 35 140 131 268 293 339 2 76 61 51 44 35 24 23 28 30 27 26 27 20 26 67 122 150 170 180 202 222 231 241 254 256 253 270 275 283 288 288 285 282 288 290 291 302 303
200 213 239 237 307 39 340 268 322 28 65 80 76 73 66 60 56 55 56 54 52 51 54 57 64 76 92 111 124 140 184 180 216 262 268 269 281 281 281 279 286 275 307 295 280 284 289 294 299
145 180 214 247 224 193 243 249 339 63 83 89 93 92 84 78 75 75 74 75 75 73 70 72 80 79 82 93 108 115 96 63 333 313 315 298 290 275 273 278 288 292 297 299 293 290 295 295 299
156 168 250 284 284 184 313 281 76 48 64 108 114 102 99 98 93 89 85 82 77 74 71 70 72 76 76 78 73 71 70 82 58 358 323 333 331 312 304 304 310 303 305 301 301 302 308 307 299
206 196 200 221 346 345 341 286 182 58 103 113 118 120 117 109 100 93 88 83 80 76 72 71 70 68 64 61 67 72 72 82 83 64 32 355 340 318 305 295 286 281 283 291 302 309 310 309 304
218 204 173 177 122 225 59 279 243 172 149 140 148 145 134 121 106 100 95 88 80 76 73 70 67 65 66 68 65 67 69 70 67 60 50 39 28 21 14 7 355 336 322 308 300 295 298 301 299
216 118 150 130 127 56 251 293 256 140 201 197 187 167 150 138 127 116 103 94 87 82 72 67 61 63 68 66 67 67 70 73 76 74 72 70 65 59 50 38 34 27 22 13 360 344 338 329 311
139 79 52 55 92 282 229 184 254 196 195 164 181 182 168 151 140 128 116 105 93 82 72 67 62 65 71 72 76 75 83 87 86 76 59 48 41 38 35 27 23 23 19 14 7 5 3 2 346
104 111 299 341 24 230 5 188 250 176 149 180 180 184 176 164 154 141 127 114 99 86 70 62 62 67 67 64 69 67 62 56 45 42 34 26 20 18 18 15 12 10 8 0 357 355 355 350 345
177 163 156 223 210 261 343 233 260 261 296 236 193 178 174 173 166 160 146 131 113 90 74 60 60 65 67 57 51 48 45 38 31 25 16 9 6 4 4 1 359 356 352 348 346 342 339 337 333
182 179 157 103 39 21 234 282 275 44 46 139 162 174 182 181 179 179 175 164 146 122 106 116 87 88 92 75 63 44 33 25 16 12 5 360 356 352 352 348 347 345 342 339 335 333 330 327 325
151 158 85 10 178 257 279 273 238 222 202 169 168 187 189 189 193 195 196 201 201 199 207 206 195 181 154 105 42 15 7 4 359 353 345 343 341 339 335 334 334 333 332 329 328 326 324 321 319
135 174 68 123 149 175 258 253 210 219 177 182 198 196 194 196 201 205 212 217 211 217 217 216 212 209 208 222 294 331 336 334 335 331 330 328 328 326 325 326 327 328 327 325 323 322 320 318 316
164 194 161 164 216 253 146 257 3 252 179 185 198 200 202 206 210 217 229 227 228 230 230 225 220 218 226 254 286 300 311 318 320 323 325 324 325 324 323 323 322 322 321 320 320 319 319 318 316